Location: Athabasca
(54.7194°N, 113.2858°W)
Time: 08:11:00
(UTC+00:00)

XW-2F - Visible Passes

Search period start: 03 December 2023 00:00
Search period end: 13 December 2023 00:00
Orbit: 399 x 405 km, 97.4° (Epoch: 02 December)

Date Brightness Start Highest point End Pass type
(mag) Time Alt. Az. Time Alt. Az. Time Alt. Az.
03 Dec ? 00:29:11 12° NNE 00:29:11 12° NNE 00:29:35 10° NNE visible
03 Dec ? 02:01:52 13° NNW 02:01:52 13° NNW 02:02:20 10° NNW visible
03 Dec ? 14:35:44 10° NNE 14:38:44 39° E 14:41:41 10° S visible
04 Dec ? 01:12:00 14° N 01:12:00 14° N 01:12:33 10° N visible
04 Dec ? 13:47:28 10° ENE 13:48:40 12° E 13:49:52 10° ESE visible
05 Dec ? 01:54:39 10° NNW 01:54:39 10° NNW 01:54:44 10° NNW visible
05 Dec ? 14:28:05 10° NNE 14:30:56 31° E 14:33:45 10° SSE visible
06 Dec ? 01:04:31 10° N 01:04:31 10° N 01:04:35 10° N visible
07 Dec ? 14:19:58 10° NE 14:22:39 25° E 14:25:18 10° SSE visible
09 Dec ? 14:11:27 10° NE 14:13:52 20° E 14:16:16 10° SE visible
10 Dec ? 14:52:16 10° NNE 14:55:22 60° ESE 14:58:26 10° S visible
11 Dec ? 14:02:31 10° NE 14:04:35 16° E 14:06:37 10° SE visible
12 Dec ? 14:42:51 10° NNE 14:45:53 45° E 14:48:52 10° S visible
